Location: *
(41.0833°N, 73.4167°W)
Time: 15:49:39
(UTC+00:00)

Cosmos 1602 Rocket - Pass Details

Date: 22 October 2019
Orbit: 604 x 633 km, 82.5° (Epoch: 17 November)

Event Time Altitude Azimuth Distance (km) Brightness Sun altitude
Rises 10:39:41 0° 199° (SSW) 2,855 6.9 -6.9°
Reaches altitude 10° 10:41:57 10° 204° (SSW) 1,952 6.0 -6.5°
Maximum altitude 10:46:09 50° 280° (W) 773 3.7 -5.7°
Drops below altitude 10° 10:50:22 10° 357° (N) 1,960 6.0 -5.0°
Sets 10:52:39 0° 3° (N) 2,868 6.9 -4.5°
